Palermo, Italy

8:47 PM CET on November 19, 2017 (GMT +0100)
Punta Raisi

Weather History for LICJ - November, 2017

Change the Weather History Date:

Wednesday, November 15, 2017

  Actual Average Record
Temperature  
Mean Temperature 58 °F -  
Max Temperature 64 °F 64 °F 82 °F (1996)
Min Temperature 51 °F 56 °F 50 °F (2011)
Degree Days  
Heating Degree Days 8    
Growing Degree Days 8 (Base 50)    
Moisture  
Dew Point 43 °F    
Average Humidity 60    
Maximum Humidity 71    
Minimum Humidity 45    
Precipitation  
Precipitation 0.00 in 0.11 in - ()
Sea Level Pressure  
Sea Level Pressure 29.76 in    
Wind  
Wind Speed 9 mph ()    
Max Wind Speed 16 mph    
Max Gust Speed -    
Visibility 6.2 miles    
Events Rain , Thunderstorm    
Averages and records for this station are not official NWS values.
T = Trace of Precipitation, MM = Missing Value Source: Averaged Metar Reports

Daily Weather History Graph

Daily Weather History Graph

Search for Another Location

Airport or City:

Trip Planner

Search our weather history database for the weather conditions in past years. The results will help you decide how hot, cold, wet, or windy it might be!

Date:

Astronomy

Nov. 15, 2017 Rise Set
Actual Time 6:48 AM CET 4:55 PM CET
Civil Twilight 6:20 AM CET 5:23 PM CET
Nautical Twilight 5:48 AM CET 5:55 PM CET
Astronomical Twilight 5:17 AM CET 6:26 PM CET
Moon 3:36 AM CET (11/15) 3:38 PM CET (11/15)
Length of Visible Light 11h 03m
Length of Day
10h 06m
Waning Crescent, 9% of the Moon is Illuminated
Nov 15
Waning Crescent
Nov 18
New
Nov 26
First Quarter
Dec 3
Full
Dec 10
Last Quarter

Hourly Weather History & Observations

Time (CET) Temp. Dew Point Humidity Pressure Visibility Wind Dir Wind Speed Gust Speed Precip Events Conditions
12:20 AM 53.6 °F 41.0 °F 62% 29.71 in - South 11.5 mph - N/A   Clear
12:50 AM 53.6 °F 42.8 °F 67% 29.71 in - South 11.5 mph - N/A   Clear
1:20 AM 53.6 °F 41.0 °F 62% 29.71 in - South 9.2 mph - N/A   Clear
1:50 AM 53.6 °F 41.0 °F 62% 29.71 in - South 10.4 mph - N/A   Clear
2:20 AM 53.6 °F 41.0 °F 62% 29.71 in - South 13.8 mph - N/A   Clear
2:50 AM 53.6 °F 41.0 °F 62% 29.71 in - South 9.2 mph - N/A   Clear
3:20 AM 53.6 °F 42.8 °F 67% 29.71 in - South 9.2 mph - N/A   Clear
3:50 AM 51.8 °F 42.8 °F 71% 29.71 in - South 9.2 mph - N/A   Clear
4:20 AM 51.8 °F 41.0 °F 67% 29.71 in - South 10.4 mph - N/A   Clear
4:50 AM 53.6 °F 41.0 °F 62% 29.71 in - South 10.4 mph - N/A   Clear
5:20 AM 53.6 °F 42.8 °F 67% 29.71 in - South 9.2 mph - N/A   Clear
5:50 AM 53.6 °F 42.8 °F 67% 29.71 in - South 8.1 mph - N/A   Clear
6:20 AM 53.6 °F 42.8 °F 67% 29.74 in - SSE 8.1 mph - N/A   Clear
6:50 AM 53.6 °F 42.8 °F 67% 29.74 in - South 9.2 mph - N/A   Clear
7:20 AM 55.4 °F 42.8 °F 63% 29.77 in 6.2 mi SSE 11.5 mph - N/A   Partly Cloudy
7:50 AM 55.4 °F 42.8 °F 63% 29.77 in 6.2 mi SSE 9.2 mph - N/A   Partly Cloudy
8:20 AM 57.2 °F 42.8 °F 59% 29.77 in 6.2 mi SSE 11.5 mph - N/A   Partly Cloudy
8:50 AM 59.0 °F 42.8 °F 55% 29.77 in 6.2 mi SSE 11.5 mph - N/A   Partly Cloudy
9:20 AM 59.0 °F 42.8 °F 55% 29.77 in 6.2 mi SSE 9.2 mph - N/A   Partly Cloudy
9:50 AM 60.8 °F 42.8 °F 52% 29.80 in 6.2 mi South 6.9 mph - N/A   Partly Cloudy
10:20 AM 60.8 °F 42.8 °F 52% 29.80 in 6.2 mi South 10.4 mph - N/A   Partly Cloudy
10:50 AM 62.6 °F 41.0 °F 45% 29.80 in 6.2 mi SSW 9.2 mph - N/A   Partly Cloudy
11:20 AM 62.6 °F 42.8 °F 48% 29.80 in 6.2 mi South 6.9 mph - N/A   Partly Cloudy
11:50 AM 64.4 °F 42.8 °F 45% 29.77 in 6.2 mi Variable 6.9 mph - N/A   Partly Cloudy
12:20 PM 64.4 °F 42.8 °F 45% 29.77 in 6.2 mi Variable 8.1 mph - N/A   Partly Cloudy
12:50 PM 62.6 °F 44.6 °F 52% 29.77 in 6.2 mi NNE 13.8 mph - N/A   Scattered Clouds
1:20 PM 60.8 °F 44.6 °F 55% 29.77 in 6.2 mi NE 16.1 mph - N/A   Scattered Clouds
1:50 PM 60.8 °F 44.6 °F 55% 29.77 in 6.2 mi NNE 10.4 mph - N/A   Unknown
2:20 PM 62.6 °F 44.6 °F 52% 29.77 in 6.2 mi NNE 9.2 mph - N/A   Mostly Cloudy
2:50 PM 60.8 °F 46.4 °F 59% 29.77 in 6.2 mi East 11.5 mph - N/A Rain Light Rain Showers
3:20 PM 59.0 °F 48.2 °F 67% 29.77 in 6.2 mi East 5.8 mph - N/A   Light Drizzle
3:50 PM 60.8 °F 46.4 °F 59% 29.77 in 6.2 mi East 4.6 mph - N/A   Mostly Cloudy
4:20 PM 59.0 °F 48.2 °F 67% 29.77 in 6.2 mi ENE 8.1 mph - N/A   Mostly Cloudy
4:50 PM 59.0 °F 48.2 °F 67% 29.77 in 6.2 mi ENE 11.5 mph - N/A   Mostly Cloudy
5:20 PM 60.8 °F 44.6 °F 55% 29.77 in 6.2 mi ESE 6.9 mph - N/A Rain , Thunderstorm Rain
5:50 PM 59.0 °F 42.8 °F 55% 29.77 in 6.2 mi East 4.6 mph - N/A Rain , Thunderstorm Rain
6:20 PM 59.0 °F 41.0 °F 51% 29.77 in 6.2 mi Variable 3.5 mph - N/A Rain , Thunderstorm Rain
6:50 PM 59.0 °F 44.6 °F 59% 29.80 in 6.2 mi Variable 3.5 mph - N/A Rain , Thunderstorm Rain
7:20 PM 59.0 °F 46.4 °F 63% 29.80 in 6.2 mi NNW 5.8 mph - N/A Rain , Thunderstorm Rain
7:50 PM 59.0 °F 44.6 °F 59% 29.80 in 6.2 mi Variable 2.3 mph - N/A Thunderstorm Mostly Cloudy
8:20 PM 55.4 °F 44.6 °F 67% 29.80 in 6.2 mi SE 6.9 mph - N/A Thunderstorm Mostly Cloudy
8:50 PM 55.4 °F 44.6 °F 67% 29.80 in 6.2 mi SE 5.8 mph - N/A   Mostly Cloudy
9:20 PM 57.2 °F 42.8 °F 59% 29.80 in 6.2 mi Variable 5.8 mph - N/A   Mostly Cloudy
9:50 PM 57.2 °F 44.6 °F 63% 29.80 in 6.2 mi East 10.4 mph - N/A   Mostly Cloudy
10:20 PM 59.0 °F 42.8 °F 55% 29.80 in 6.2 mi East 5.8 mph - N/A   Mostly Cloudy
10:50 PM 59.0 °F 42.8 °F 55% 29.83 in 6.2 mi NNE 10.4 mph - N/A   Mostly Cloudy
11:20 PM 55.4 °F 44.6 °F 67% 29.83 in 6.2 mi South 3.5 mph - N/A   Mostly Cloudy
11:50 PM 57.2 °F 42.8 °F 59% 29.83 in 6.2 mi SSE 3.5 mph - N/A   Scattered Clouds